Time,TemperatureF,DewpointF,PressureIn,WindDirection,WindDirectionDegrees,WindSpeedMPH,WindSpeedGustMPH,Humidity,HourlyPrecipIn,Conditions,Clouds,dailyrainin,SoftwareType,DateUTC
2013-03-26 00:00:00,36.3,17.1,28.88,NE,45,3.0,4.0,45,0.00,,,0.00,meteohub,2013-03-26 05:00:00,
2013-03-26 00:05:00,36.3,16.0,28.87,NE,45,4.0,4.0,43,0.00,,,0.00,meteohub,2013-03-26 05:05:00,
2013-03-26 00:10:00,36.1,15.3,28.87,ENE,68,4.0,4.0,42,0.00,,,0.00,meteohub,2013-03-26 05:10:00,
2013-03-26 00:16:00,36.3,15.4,28.87,NE,45,3.0,4.0,42,0.00,,,0.00,meteohub,2013-03-26 05:16:00,
2013-03-26 00:21:00,36.0,15.1,28.87,NE,45,3.0,4.0,42,0.00,,,0.00,meteohub,2013-03-26 05:21:00,
2013-03-26 00:26:00,36.0,16.7,28.87,NE,45,4.0,4.0,45,0.00,,,0.00,meteohub,2013-03-26 05:26:00,
2013-03-26 00:31:00,36.1,16.3,28.88,East,90,2.0,4.0,44,0.00,,,0.00,meteohub,2013-03-26 05:31:00,
2013-03-26 00:36:00,35.8,16.5,28.88,East,90,2.0,4.0,45,0.00,,,0.00,meteohub,2013-03-26 05:36:00,
2013-03-26 00:41:00,35.6,16.3,28.88,NE,45,2.0,4.0,45,0.00,,,0.00,meteohub,2013-03-26 05:41:00,
2013-03-26 00:46:00,35.2,16.5,28.88,North,0,2.0,2.0,46,0.00,,,0.00,meteohub,2013-03-26 05:46:00,
2013-03-26 00:51:00,34.7,16.5,28.88,North,0,1.0,2.0,47,0.00,,,0.00,meteohub,2013-03-26 05:51:00,
2013-03-26 00:56:00,33.8,15.6,28.88,North,0,2.0,2.0,47,0.00,,,0.00,meteohub,2013-03-26 05:56:00,
2013-03-26 01:01:00,33.6,16.5,28.88,North,0,2.0,2.0,49,0.00,,,0.00,meteohub,2013-03-26 06:01:00,
2013-03-26 01:06:00,33.6,16.0,28.88,North,0,2.0,2.0,48,0.00,,,0.00,meteohub,2013-03-26 06:06:00,
2013-03-26 01:12:00,32.9,15.4,28.88,NW,315,1.0,2.0,48,0.00,,,0.00,meteohub,2013-03-26 06:12:00,
2013-03-26 01:17:00,32.2,15.1,28.88,NW,315,0.0,2.0,49,0.00,,,0.00,meteohub,2013-03-26 06:17:00,
2013-03-26 01:22:00,31.1,14.5,28.88,NW,315,0.0,2.0,50,0.00,,,0.00,meteohub,2013-03-26 06:22:00,
2013-03-26 01:27:00,31.3,14.7,28.88,NW,315,0.0,2.0,50,0.00,,,0.00,meteohub,2013-03-26 06:27:00,
2013-03-26 01:32:00,29.8,14.7,28.88,SW,225,2.0,2.0,53,0.00,,,0.00,meteohub,2013-03-26 06:32:00,
2013-03-26 01:37:00,28.9,14.7,28.88,SW,225,3.0,4.0,55,0.00,,,0.00,meteohub,2013-03-26 06:37:00,
2013-03-26 01:42:00,28.2,14.5,28.89,SW,225,2.0,4.0,56,0.00,,,0.00,meteohub,2013-03-26 06:42:00,
2013-03-26 01:47:00,28.0,14.7,28.89,NW,315,1.0,4.0,57,0.00,,,0.00,meteohub,2013-03-26 06:47:00,
2013-03-26 01:52:00,28.0,15.6,28.89,NW,315,2.0,4.0,59,0.00,,,0.00,meteohub,2013-03-26 06:52:00,
2013-03-26 01:57:00,28.0,16.0,28.88,West,270,2.0,4.0,60,0.00,,,0.00,meteohub,2013-03-26 06:57:00,
2013-03-26 02:02:00,28.0,16.0,28.89,West,270,2.0,2.0,60,0.00,,,0.00,meteohub,2013-03-26 07:02:00,
2013-03-26 02:07:00,27.7,15.3,28.89,West,270,3.0,3.0,59,0.00,,,0.00,meteohub,2013-03-26 07:07:00,
2013-03-26 02:12:00,27.7,15.3,28.89,West,270,1.0,3.0,59,0.00,,,0.00,meteohub,2013-03-26 07:12:00,
2013-03-26 02:17:00,27.3,14.9,28.89,SW,225,3.0,3.0,59,0.00,,,0.00,meteohub,2013-03-26 07:17:00,
2013-03-26 02:22:00,27.5,15.1,28.89,West,270,2.0,3.0,59,0.00,,,0.00,meteohub,2013-03-26 07:22:00,
2013-03-26 02:27:00,27.3,15.3,28.89,NW,315,1.0,3.0,60,0.00,,,0.00,meteohub,2013-03-26 07:27:00,
2013-03-26 02:32:00,27.1,15.4,28.89,North,0,1.0,3.0,61,0.00,,,0.00,meteohub,2013-03-26 07:32:00,
2013-03-26 02:37:00,27.5,16.2,28.89,North,0,2.0,2.0,62,0.00,,,0.00,meteohub,2013-03-26 07:37:00,
2013-03-26 02:42:00,27.1,15.8,28.89,NW,315,2.0,2.0,62,0.00,,,0.00,meteohub,2013-03-26 07:42:00,
2013-03-26 02:47:00,27.1,15.8,28.89,NW,315,2.0,2.0,62,0.00,,,0.00,meteohub,2013-03-26 07:47:00,
2013-03-26 02:52:00,27.5,16.2,28.89,North,0,2.0,2.0,62,0.00,,,0.00,meteohub,2013-03-26 07:52:00,
2013-03-26 02:57:00,27.7,16.3,28.89,NW,315,2.0,2.0,62,0.00,,,0.00,meteohub,2013-03-26 07:57:00,
2013-03-26 03:03:00,27.9,16.5,28.89,NW,315,2.0,2.0,62,0.00,,,0.00,meteohub,2013-03-26 08:03:00,
2013-03-26 03:08:00,27.7,16.3,28.89,NW,315,2.0,2.0,62,0.00,,,0.00,meteohub,2013-03-26 08:08:00,
2013-03-26 03:13:00,27.7,16.3,28.89,North,0,2.0,2.0,62,0.00,,,0.00,meteohub,2013-03-26 08:13:00,
2013-03-26 03:18:00,27.7,16.3,28.89,North,0,2.0,3.0,62,0.00,,,0.00,meteohub,2013-03-26 08:18:00,
2013-03-26 03:23:00,27.7,16.7,28.89,North,0,2.0,3.0,63,0.00,,,0.00,meteohub,2013-03-26 08:23:00,
2013-03-26 03:28:00,27.9,16.5,28.89,NW,315,2.0,3.0,62,0.00,,,0.00,meteohub,2013-03-26 08:28:00,
2013-03-26 03:33:00,27.7,16.3,28.89,NW,315,2.0,2.0,62,0.00,,,0.00,meteohub,2013-03-26 08:33:00,
2013-03-26 03:38:00,27.9,16.5,28.89,North,0,2.0,2.0,62,0.00,,,0.00,meteohub,2013-03-26 08:38:00,
2013-03-26 03:43:00,27.9,16.5,28.88,NW,315,1.0,2.0,62,0.00,,,0.00,meteohub,2013-03-26 08:43:00,
2013-03-26 03:48:00,27.7,16.3,28.89,NW,315,2.0,2.0,62,0.00,,,0.00,meteohub,2013-03-26 08:48:00,
2013-03-26 03:53:00,27.5,16.5,28.89,North,0,2.0,2.0,63,0.00,,,0.00,meteohub,2013-03-26 08:53:00,
2013-03-26 03:58:00,27.3,16.0,28.88,North,0,3.0,3.0,62,0.00,,,0.00,meteohub,2013-03-26 08:58:00,
2013-03-26 04:03:00,27.1,16.2,28.88,North,0,3.0,3.0,63,0.00,,,0.00,meteohub,2013-03-26 09:03:00,
2013-03-26 04:08:00,26.8,16.2,28.88,NNW,338,3.0,3.0,64,0.00,,,0.00,meteohub,2013-03-26 09:08:00,
2013-03-26 04:13:00,27.0,16.3,28.88,North,0,3.0,3.0,64,0.00,,,0.00,meteohub,2013-03-26 09:13:00,
2013-03-26 04:18:00,26.8,16.2,28.87,North,0,2.0,3.0,64,0.00,,,0.00,meteohub,2013-03-26 09:18:00,
2013-03-26 04:23:00,27.1,16.5,28.88,North,0,2.0,3.0,64,0.00,,,0.00,meteohub,2013-03-26 09:23:00,
2013-03-26 04:28:00,26.8,16.2,28.88,North,0,2.0,3.0,64,0.00,,,0.00,meteohub,2013-03-26 09:28:00,
2013-03-26 04:33:00,27.0,16.3,28.87,North,0,2.0,3.0,64,0.00,,,0.00,meteohub,2013-03-26 09:33:00,
2013-03-26 04:38:00,27.0,16.3,28.87,North,0,3.0,3.0,64,0.00,,,0.00,meteohub,2013-03-26 09:38:00,
2013-03-26 04:43:00,26.6,16.0,28.88,North,0,2.0,3.0,64,0.00,,,0.00,meteohub,2013-03-26 09:43:00,
2013-03-26 04:48:00,26.8,16.2,28.88,North,0,2.0,3.0,64,0.00,,,0.00,meteohub,2013-03-26 09:48:00,
2013-03-26 04:53:00,27.0,16.0,28.87,North,0,3.0,3.0,63,0.00,,,0.00,meteohub,2013-03-26 09:53:00,
2013-03-26 04:58:00,27.0,16.0,28.87,North,0,3.0,4.0,63,0.00,,,0.00,meteohub,2013-03-26 09:58:00,
2013-03-26 05:03:00,27.3,16.0,28.87,NE,45,4.0,4.0,62,0.00,,,0.00,meteohub,2013-03-26 10:03:00,
2013-03-26 05:08:00,27.5,15.8,28.87,North,0,3.0,4.0,61,0.00,,,0.00,meteohub,2013-03-26 10:08:00,
2013-03-26 05:13:00,27.9,16.2,28.87,NE,45,5.0,5.0,61,0.00,,,0.00,meteohub,2013-03-26 10:13:00,
2013-03-26 05:18:00,28.0,15.6,28.87,North,0,4.0,5.0,59,0.00,,,0.00,meteohub,2013-03-26 10:18:00,
2013-03-26 05:23:00,28.6,15.3,28.87,North,0,4.0,5.0,57,0.00,,,0.00,meteohub,2013-03-26 10:23:00,
2013-03-26 05:28:00,28.8,15.4,28.87,NE,45,5.0,6.0,57,0.00,,,0.00,meteohub,2013-03-26 10:28:00,
2013-03-26 05:33:00,29.3,15.6,28.87,NE,45,5.0,6.0,56,0.00,,,0.00,meteohub,2013-03-26 10:33:00,
2013-03-26 05:38:00,29.5,16.2,28.87,North,0,2.0,6.0,57,0.00,,,0.00,meteohub,2013-03-26 10:38:00,
2013-03-26 05:44:00,29.1,15.4,28.88,North,0,3.0,5.0,56,0.00,,,0.00,meteohub,2013-03-26 10:44:00,
2013-03-26 05:49:00,28.9,15.3,28.88,NE,45,2.0,5.0,56,0.00,,,0.00,meteohub,2013-03-26 10:49:00,
2013-03-26 05:54:00,28.4,14.7,28.87,NW,315,2.0,4.0,56,0.00,,,0.00,meteohub,2013-03-26 10:54:00,
2013-03-26 05:59:00,27.1,13.5,28.88,NW,315,2.0,3.0,56,0.00,,,0.00,meteohub,2013-03-26 10:59:00,
2013-03-26 06:04:00,25.0,12.7,28.88,West,270,2.0,3.0,59,0.00,,,0.00,meteohub,2013-03-26 11:04:00,
2013-03-26 06:09:00,23.5,12.7,28.88,NW,315,2.0,2.0,63,0.00,,,0.00,meteohub,2013-03-26 11:09:00,
2013-03-26 06:14:00,23.0,13.6,28.88,NW,315,2.0,2.0,67,0.00,,,0.00,meteohub,2013-03-26 11:14:00,
2013-03-26 06:19:00,22.3,14.0,28.88,NW,315,2.0,2.0,70,0.00,,,0.00,meteohub,2013-03-26 11:19:00,
2013-03-26 06:24:00,22.1,14.2,28.88,NW,315,2.0,2.0,71,0.00,,,0.00,meteohub,2013-03-26 11:24:00,
2013-03-26 06:29:00,21.9,14.0,28.89,West,270,2.0,2.0,71,0.00,,,0.00,meteohub,2013-03-26 11:29:00,
2013-03-26 06:34:00,21.7,14.2,28.89,NW,315,1.0,2.0,72,0.00,,,0.00,meteohub,2013-03-26 11:34:00,
2013-03-26 06:39:00,21.7,14.4,28.89,NW,315,2.0,2.0,73,0.00,,,0.00,meteohub,2013-03-26 11:39:00,
2013-03-26 06:44:00,21.7,14.4,28.89,NW,315,2.0,2.0,73,0.00,,,0.00,meteohub,2013-03-26 11:44:00,
2013-03-26 06:49:00,22.1,14.7,28.89,NW,315,2.0,2.0,73,0.00,,,0.00,meteohub,2013-03-26 11:49:00,
2013-03-26 06:54:00,22.1,14.7,28.89,North,0,2.0,2.0,73,0.00,,,0.00,meteohub,2013-03-26 11:54:00,
2013-03-26 06:59:00,22.1,14.7,28.90,North,0,2.0,2.0,73,0.00,,,0.00,meteohub,2013-03-26 11:59:00,
2013-03-26 07:04:00,22.3,15.3,28.90,NW,315,1.0,2.0,74,0.00,,,0.00,meteohub,2013-03-26 12:04:00,
2013-03-26 07:09:00,22.5,15.1,28.90,North,0,2.0,2.0,73,0.00,,,0.00,meteohub,2013-03-26 12:09:00,
2013-03-26 07:14:00,22.3,15.3,28.90,North,0,2.0,2.0,74,0.00,,,0.00,meteohub,2013-03-26 12:14:00,
2013-03-26 07:19:00,22.1,15.1,28.90,North,0,2.0,2.0,74,0.00,,,0.00,meteohub,2013-03-26 12:19:00,
2013-03-26 07:24:00,22.1,15.1,28.90,North,0,3.0,3.0,74,0.00,,,0.00,meteohub,2013-03-26 12:24:00,
2013-03-26 07:29:00,22.1,15.1,28.90,North,0,3.0,3.0,74,0.00,,,0.00,meteohub,2013-03-26 12:29:00,
2013-03-26 07:34:00,22.1,15.1,28.90,North,0,2.0,3.0,74,0.00,,,0.00,meteohub,2013-03-26 12:34:00,
2013-03-26 07:39:00,22.5,15.4,28.90,North,0,2.0,3.0,74,0.00,,,0.00,meteohub,2013-03-26 12:39:00,
2013-03-26 07:44:00,22.6,15.3,28.90,North,0,0.0,3.0,73,0.00,,,0.00,meteohub,2013-03-26 12:44:00,
2013-03-26 07:49:00,23.0,15.6,28.90,NE,45,1.0,3.0,73,0.00,,,0.00,meteohub,2013-03-26 12:49:00,
2013-03-26 07:54:00,23.5,16.2,28.90,NE,45,2.0,2.0,73,0.00,,,0.00,meteohub,2013-03-26 12:54:00,
2013-03-26 07:59:00,23.9,16.2,28.91,NE,45,2.0,2.0,72,0.00,,,0.00,meteohub,2013-03-26 12:59:00,
2013-03-26 08:04:00,24.6,16.5,28.91,NE,45,2.0,2.0,71,0.00,,,0.00,meteohub,2013-03-26 13:04:00,
2013-03-26 08:09:00,25.7,16.9,28.91,North,0,3.0,3.0,69,0.00,,,0.00,meteohub,2013-03-26 13:09:00,
2013-03-26 08:14:00,26.8,17.2,28.91,NE,45,5.0,5.0,67,0.00,,,0.00,meteohub,2013-03-26 13:14:00,
2013-03-26 08:20:00,27.7,17.4,28.91,NE,45,5.0,5.0,65,0.00,,,0.00,meteohub,2013-03-26 13:20:00,
2013-03-26 08:25:00,28.6,17.6,28.90,NE,45,5.0,5.0,63,0.00,,,0.00,meteohub,2013-03-26 13:25:00,
2013-03-26 08:29:00,28.9,17.6,28.91,NE,45,5.0,8.0,62,0.00,,,0.00,meteohub,2013-03-26 13:29:00,
2013-03-26 08:35:00,29.3,18.3,28.90,NE,45,8.0,8.0,63,0.00,,,0.00,meteohub,2013-03-26 13:35:00,
2013-03-26 08:40:00,29.7,18.7,28.91,East,90,6.0,8.0,63,0.00,,,0.00,meteohub,2013-03-26 13:40:00,
2013-03-26 08:45:00,29.8,17.6,28.90,NE,45,5.0,8.0,60,0.00,,,0.00,meteohub,2013-03-26 13:45:00,
2013-03-26 08:50:00,29.8,17.2,28.91,East,90,5.0,8.0,59,0.00,,,0.00,meteohub,2013-03-26 13:50:00,
2013-03-26 08:55:00,30.4,17.8,28.90,NE,45,6.0,7.0,59,0.00,,,0.00,meteohub,2013-03-26 13:55:00,
2013-03-26 09:00:00,31.1,18.1,28.91,NE,45,5.0,7.0,58,0.00,,,0.00,meteohub,2013-03-26 14:00:00,
2013-03-26 09:05:00,31.8,18.7,28.91,NE,45,3.0,8.0,58,0.00,,,0.00,meteohub,2013-03-26 14:05:00,
2013-03-26 09:10:00,32.7,19.2,28.91,East,90,5.0,8.0,57,0.00,,,0.00,meteohub,2013-03-26 14:10:00,
2013-03-26 09:15:00,33.8,18.9,28.91,NE,45,4.0,8.0,54,0.00,,,0.00,meteohub,2013-03-26 14:15:00,
2013-03-26 09:20:00,34.5,19.6,28.92,East,90,5.0,5.0,54,0.00,,,0.00,meteohub,2013-03-26 14:20:00,
2013-03-26 09:25:00,35.2,19.4,28.92,East,90,4.0,5.0,52,0.00,,,0.00,meteohub,2013-03-26 14:25:00,
2013-03-26 09:30:00,35.8,19.0,28.92,East,90,6.0,6.0,50,0.00,,,0.00,meteohub,2013-03-26 14:30:00,
2013-03-26 09:35:00,36.0,18.1,28.92,East,90,5.0,6.0,48,0.00,,,0.00,meteohub,2013-03-26 14:35:00,
2013-03-26 09:40:00,36.3,18.0,28.92,East,90,8.0,8.0,47,0.00,,,0.00,meteohub,2013-03-26 14:40:00,
2013-03-26 09:45:00,36.5,18.1,28.92,East,90,4.0,8.0,47,0.00,,,0.00,meteohub,2013-03-26 14:45:00,
2013-03-26 09:50:00,36.9,18.0,28.92,East,90,7.0,8.0,46,0.00,,,0.00,meteohub,2013-03-26 14:50:00,
2013-03-26 09:55:00,37.4,18.5,28.92,East,90,8.0,8.0,46,0.00,,,0.00,meteohub,2013-03-26 14:55:00,
2013-03-26 10:00:00,37.8,18.3,28.92,East,90,7.0,9.0,45,0.00,,,0.00,meteohub,2013-03-26 15:00:00,
2013-03-26 10:05:00,38.1,18.1,28.93,East,90,4.0,9.0,44,0.00,,,0.00,meteohub,2013-03-26 15:05:00,
2013-03-26 10:10:00,38.8,18.3,28.92,NE,45,5.0,9.0,43,0.00,,,0.00,meteohub,2013-03-26 15:10:00,
2013-03-26 10:15:00,39.2,18.0,28.92,SE,135,9.0,9.0,42,0.00,,,0.00,meteohub,2013-03-26 15:15:00,
2013-03-26 10:20:00,39.6,18.3,28.92,SE,135,6.0,8.0,42,0.00,,,0.00,meteohub,2013-03-26 15:20:00,
2013-03-26 10:25:00,40.1,17.1,28.92,East,90,6.0,9.0,39,0.00,,,0.00,meteohub,2013-03-26 15:25:00,
2013-03-26 10:30:00,40.5,17.4,28.92,East,90,11.0,11.0,39,0.00,,,0.00,meteohub,2013-03-26 15:30:00,
2013-03-26 10:35:00,40.8,16.5,28.92,East,90,8.0,11.0,37,0.00,,,0.00,meteohub,2013-03-26 15:35:00,
2013-03-26 10:40:00,41.0,17.4,28.92,SE,135,4.0,11.0,38,0.00,,,0.00,meteohub,2013-03-26 15:40:00,
2013-03-26 10:45:00,41.9,16.2,28.92,East,90,4.0,11.0,35,0.00,,,0.00,meteohub,2013-03-26 15:45:00,
2013-03-26 10:50:00,42.3,15.8,28.92,SE,135,8.0,8.0,34,0.00,,,0.00,meteohub,2013-03-26 15:50:00,
2013-03-26 10:55:00,42.4,17.4,28.92,East,90,4.0,8.0,36,0.00,,,0.00,meteohub,2013-03-26 15:55:00,
2013-03-26 11:00:00,43.2,16.0,28.92,South,180,5.0,8.0,33,0.00,,,0.00,meteohub,2013-03-26 16:00:00,
2013-03-26 11:05:00,43.0,15.1,28.92,East,90,7.0,15.0,32,0.00,,,0.00,meteohub,2013-03-26 16:05:00,
2013-03-26 11:10:00,43.7,16.5,28.92,SE,135,9.0,15.0,33,0.00,,,0.00,meteohub,2013-03-26 16:10:00,
2013-03-26 11:15:00,43.5,14.9,28.92,SE,135,10.0,15.0,31,0.00,,,0.00,meteohub,2013-03-26 16:15:00,
2013-03-26 11:20:00,43.9,16.0,28.92,South,180,9.0,12.0,32,0.00,,,0.00,meteohub,2013-03-26 16:20:00,
2013-03-26 11:25:00,44.2,14.7,28.92,South,180,7.0,12.0,30,0.00,,,0.00,meteohub,2013-03-26 16:25:00,
2013-03-26 11:30:00,44.8,16.0,28.92,SW,225,8.0,12.0,31,0.00,,,0.00,meteohub,2013-03-26 16:30:00,
2013-03-26 11:35:00,45.1,14.0,28.91,South,180,11.0,11.0,28,0.00,,,0.00,meteohub,2013-03-26 16:35:00,
2013-03-26 11:41:00,44.8,15.3,28.91,South,180,8.0,11.0,30,0.00,,,0.00,meteohub,2013-03-26 16:41:00,
2013-03-26 11:46:00,45.5,15.8,28.91,South,180,12.0,12.0,30,0.00,,,0.00,meteohub,2013-03-26 16:46:00,
2013-03-26 11:51:00,45.7,16.0,28.90,SE,135,9.0,13.0,30,0.00,,,0.00,meteohub,2013-03-26 16:51:00,
2013-03-26 11:56:00,45.9,14.5,28.90,South,180,10.0,13.0,28,0.00,,,0.00,meteohub,2013-03-26 16:56:00,
2013-03-26 12:01:00,46.2,14.9,28.90,South,180,11.0,14.0,28,0.00,,,0.00,meteohub,2013-03-26 17:01:00,
2013-03-26 12:06:00,46.0,14.0,28.90,South,180,13.0,14.0,27,0.00,,,0.00,meteohub,2013-03-26 17:06:00,
2013-03-26 12:11:00,46.6,16.0,28.90,South,180,6.0,14.0,29,0.00,,,0.00,meteohub,2013-03-26 17:11:00,
2013-03-26 12:16:00,46.9,15.4,28.90,SE,135,11.0,16.0,28,0.00,,,0.00,meteohub,2013-03-26 17:16:00,
2013-03-26 12:21:00,47.7,14.4,28.89,SE,135,11.0,16.0,26,0.00,,,0.00,meteohub,2013-03-26 17:21:00,
2013-03-26 12:26:00,47.7,15.3,28.89,SE,135,10.0,16.0,27,0.00,,,0.00,meteohub,2013-03-26 17:26:00,
2013-03-26 12:31:00,47.5,14.4,28.89,South,180,11.0,15.0,26,0.00,,,0.00,meteohub,2013-03-26 17:31:00,
2013-03-26 12:36:00,47.3,15.1,28.89,South,180,8.0,15.0,27,0.00,,,0.00,meteohub,2013-03-26 17:36:00,
2013-03-26 12:41:00,48.4,14.2,28.89,South,180,8.0,13.0,25,0.00,,,0.00,meteohub,2013-03-26 17:41:00,
2013-03-26 12:46:00,48.4,15.1,28.88,SW,225,8.0,13.0,26,0.00,,,0.00,meteohub,2013-03-26 17:46:00,
2013-03-26 12:51:00,49.5,15.1,28.88,South,180,11.0,12.0,25,0.00,,,0.00,meteohub,2013-03-26 17:51:00,
2013-03-26 12:56:00,49.5,15.1,28.87,SSW,203,10.0,14.0,25,0.00,,,0.00,meteohub,2013-03-26 17:56:00,
2013-03-26 13:01:00,49.5,15.1,28.87,SE,135,13.0,14.0,25,0.00,,,0.00,meteohub,2013-03-26 18:01:00,
2013-03-26 13:06:00,50.2,14.7,28.87,East,90,8.0,14.0,24,0.00,,,0.00,meteohub,2013-03-26 18:06:00,
2013-03-26 13:11:00,50.4,14.9,28.86,SSE,158,13.0,14.0,24,0.00,,,0.00,meteohub,2013-03-26 18:11:00,
2013-03-26 13:16:00,50.0,14.5,28.86,SW,225,8.0,13.0,24,0.00,,,0.00,meteohub,2013-03-26 18:16:00,
2013-03-26 13:21:00,49.8,14.5,28.86,South,180,11.0,15.0,24,0.00,,,0.00,meteohub,2013-03-26 18:21:00,
2013-03-26 13:27:00,50.5,15.1,28.85,SE,135,9.0,15.0,24,0.00,,,0.00,meteohub,2013-03-26 18:27:00,
2013-03-26 13:32:00,51.1,14.5,28.85,WNW,293,9.0,15.0,23,0.00,,,0.00,meteohub,2013-03-26 18:32:00,
2013-03-26 13:37:00,52.0,14.4,28.84,South,180,11.0,14.0,22,0.00,,,0.00,meteohub,2013-03-26 18:37:00,
2013-03-26 13:42:00,52.2,15.4,28.84,SE,135,7.0,12.0,23,0.00,,,0.00,meteohub,2013-03-26 18:42:00,
2013-03-26 13:47:00,52.3,14.5,28.84,South,180,11.0,12.0,22,0.00,,,0.00,meteohub,2013-03-26 18:47:00,
2013-03-26 13:52:00,52.3,14.5,28.84,SE,135,11.0,14.0,22,0.00,,,0.00,meteohub,2013-03-26 18:52:00,
2013-03-26 13:57:00,52.3,14.5,28.83,SSE,158,8.0,14.0,22,0.00,,,0.00,meteohub,2013-03-26 18:57:00,
2013-03-26 14:02:00,52.7,16.0,28.83,East,90,7.0,12.0,23,0.00,,,0.00,meteohub,2013-03-26 19:02:00,
2013-03-26 14:07:00,53.1,14.2,28.82,South,180,11.0,12.0,21,0.00,,,0.00,meteohub,2013-03-26 19:07:00,
2013-03-26 14:12:00,53.2,12.0,28.82,South,180,11.0,12.0,19,0.00,,,0.00,meteohub,2013-03-26 19:12:00,
2013-03-26 14:17:00,53.2,15.4,28.82,East,90,11.0,12.0,22,0.00,,,0.00,meteohub,2013-03-26 19:17:00,
2013-03-26 14:22:00,53.6,13.5,28.82,ESE,113,9.0,13.0,20,0.00,,,0.00,meteohub,2013-03-26 19:22:00,
2013-03-26 14:27:00,53.8,13.6,28.81,East,90,8.0,17.0,20,0.00,,,0.00,meteohub,2013-03-26 19:27:00,
2013-03-26 14:32:00,54.3,14.0,28.81,SW,225,7.0,17.0,20,0.00,,,0.00,meteohub,2013-03-26 19:32:00,
2013-03-26 14:37:00,54.1,12.7,28.80,SW,225,9.0,17.0,19,0.00,,,0.00,meteohub,2013-03-26 19:37:00,
2013-03-26 14:42:00,54.5,13.1,28.80,South,180,5.0,11.0,19,0.00,,,0.00,meteohub,2013-03-26 19:42:00,
2013-03-26 14:47:00,54.9,14.5,28.80,SW,225,11.0,14.0,20,0.00,,,0.00,meteohub,2013-03-26 19:47:00,
2013-03-26 14:52:00,55.2,14.9,28.79,South,180,9.0,17.0,20,0.00,,,0.00,meteohub,2013-03-26 19:52:00,
2013-03-26 14:57:00,55.0,12.2,28.79,SW,225,12.0,17.0,18,0.00,,,0.00,meteohub,2013-03-26 19:57:00,
2013-03-26 15:02:00,55.0,13.5,28.79,South,180,13.0,17.0,19,0.00,,,0.00,meteohub,2013-03-26 20:02:00,
2013-03-26 15:07:00,55.4,12.6,28.79,South,180,10.0,14.0,18,0.00,,,0.00,meteohub,2013-03-26 20:07:00,
2013-03-26 15:12:00,55.8,14.2,28.79,SE,135,12.0,15.0,19,0.00,,,0.00,meteohub,2013-03-26 20:12:00,
2013-03-26 15:17:00,56.3,12.0,28.79,South,180,16.0,16.0,17,0.00,,,0.00,meteohub,2013-03-26 20:17:00,
2013-03-26 15:22:00,56.1,14.4,28.78,South,180,11.0,18.0,19,0.00,,,0.00,meteohub,2013-03-26 20:22:00,
2013-03-26 15:27:00,56.3,13.3,28.78,NE,45,9.0,18.0,18,0.00,,,0.00,meteohub,2013-03-26 20:27:00,
2013-03-26 15:32:00,56.5,13.5,28.77,SSE,158,10.0,18.0,18,0.00,,,0.00,meteohub,2013-03-26 20:32:00,
2013-03-26 15:37:00,56.5,12.2,28.77,SW,225,13.0,16.0,17,0.00,,,0.00,meteohub,2013-03-26 20:37:00,
2013-03-26 15:42:00,57.4,14.2,28.77,South,180,16.0,22.0,18,0.00,,,0.00,meteohub,2013-03-26 20:42:00,
2013-03-26 15:47:00,57.2,11.5,28.77,South,180,16.0,22.0,16,0.00,,,0.00,meteohub,2013-03-26 20:47:00,
2013-03-26 15:52:00,57.4,12.9,28.76,SE,135,11.0,17.0,17,0.00,,,0.00,meteohub,2013-03-26 20:52:00,
2013-03-26 15:57:00,57.9,12.0,28.75,South,180,16.0,16.0,16,0.00,,,0.00,meteohub,2013-03-26 20:57:00,
2013-03-26 16:02:00,57.7,10.4,28.75,South,180,10.0,16.0,15,0.00,,,0.00,meteohub,2013-03-26 21:02:00,
2013-03-26 16:08:00,58.3,9.3,28.75,South,180,16.0,16.0,14,0.00,,,0.00,meteohub,2013-03-26 21:08:00,
2013-03-26 16:13:00,57.9,9.0,28.74,SSE,158,14.0,20.0,14,0.00,,,0.00,meteohub,2013-03-26 21:13:00,
2013-03-26 16:18:00,58.3,10.8,28.74,SW,225,11.0,20.0,15,0.00,,,0.00,meteohub,2013-03-26 21:18:00,
2013-03-26 16:23:00,58.5,7.7,28.74,South,180,16.0,20.0,13,0.00,,,0.00,meteohub,2013-03-26 21:23:00,
2013-03-26 16:28:00,58.8,9.7,28.73,South,180,15.0,17.0,14,0.00,,,0.00,meteohub,2013-03-26 21:28:00,
2013-03-26 16:33:00,59.0,8.2,28.73,NE,45,10.0,17.0,13,0.00,,,0.00,meteohub,2013-03-26 21:33:00,
2013-03-26 16:38:00,59.4,8.4,28.73,South,180,9.0,17.0,13,0.00,,,0.00,meteohub,2013-03-26 21:38:00,
2013-03-26 16:43:00,59.4,10.2,28.72,South,180,15.0,16.0,14,0.00,,,0.00,meteohub,2013-03-26 21:43:00,
2013-03-26 16:48:00,59.2,6.6,28.72,South,180,15.0,18.0,12,0.00,,,0.00,meteohub,2013-03-26 21:48:00,
2013-03-26 16:53:00,59.7,8.8,28.71,South,180,13.0,18.0,13,0.00,,,0.00,meteohub,2013-03-26 21:53:00,
2013-03-26 16:58:00,59.5,6.8,28.70,SSE,158,12.0,18.0,12,0.00,,,0.00,meteohub,2013-03-26 21:58:00,
2013-03-26 17:03:00,59.9,9.0,28.70,South,180,12.0,15.0,13,0.00,,,0.00,meteohub,2013-03-26 22:03:00,
2013-03-26 17:08:00,60.3,7.3,28.70,SE,135,13.0,15.0,12,0.00,,,0.00,meteohub,2013-03-26 22:08:00,
2013-03-26 17:13:00,60.1,5.4,28.70,South,180,11.0,13.0,11,0.00,,,0.00,meteohub,2013-03-26 22:13:00,
2013-03-26 17:18:00,60.3,5.5,28.70,SE,135,17.0,17.0,11,0.00,,,0.00,meteohub,2013-03-26 22:18:00,
2013-03-26 17:23:00,60.3,5.5,28.70,South,180,14.0,17.0,11,0.00,,,0.00,meteohub,2013-03-26 22:23:00,
2013-03-26 17:28:00,60.6,5.7,28.69,East,90,12.0,17.0,11,0.00,,,0.00,meteohub,2013-03-26 22:28:00,
2013-03-26 17:33:00,60.4,5.7,28.69,South,180,9.0,17.0,11,0.00,,,0.00,meteohub,2013-03-26 22:33:00,
2013-03-26 17:38:00,60.6,5.7,28.69,SE,135,11.0,15.0,11,0.00,,,0.00,meteohub,2013-03-26 22:38:00,
2013-03-26 17:43:00,60.6,5.7,28.69,South,180,11.0,13.0,11,0.00,,,0.00,meteohub,2013-03-26 22:43:00,
2013-03-26 17:48:00,60.8,5.9,28.69,SE,135,12.0,12.0,11,0.00,,,0.00,meteohub,2013-03-26 22:48:00,
2013-03-26 17:53:00,61.0,3.9,28.69,South,180,14.0,14.0,10,0.00,,,0.00,meteohub,2013-03-26 22:53:00,
2013-03-26 17:58:00,61.0,6.1,28.69,SE,135,14.0,15.0,11,0.00,,,0.00,meteohub,2013-03-26 22:58:00,
2013-03-26 18:03:00,61.0,6.1,28.68,SE,135,10.0,15.0,11,0.00,,,0.00,meteohub,2013-03-26 23:03:00,
2013-03-26 18:08:00,61.2,6.3,28.68,SE,135,11.0,16.0,11,0.00,,,0.00,meteohub,2013-03-26 23:08:00,
2013-03-26 18:13:00,61.0,3.9,28.67,SE,135,12.0,16.0,10,0.00,,,0.00,meteohub,2013-03-26 23:13:00,
2013-03-26 18:18:00,60.6,3.7,28.68,SE,135,12.0,16.0,10,0.00,,,0.00,meteohub,2013-03-26 23:18:00,
2013-03-26 18:23:00,61.0,3.9,28.68,South,180,10.0,16.0,10,0.00,,,0.00,meteohub,2013-03-26 23:23:00,
2013-03-26 18:28:00,60.8,5.9,28.68,SSW,203,11.0,15.0,11,0.00,,,0.00,meteohub,2013-03-26 23:28:00,
2013-03-26 18:33:00,61.0,3.9,28.67,ESE,113,9.0,13.0,10,0.00,,,0.00,meteohub,2013-03-26 23:33:00,
2013-03-26 18:38:00,60.8,3.9,28.67,South,180,11.0,15.0,10,0.00,,,0.00,meteohub,2013-03-26 23:38:00,
2013-03-26 18:43:00,60.8,3.9,28.67,SW,225,8.0,16.0,10,0.00,,,0.00,meteohub,2013-03-26 23:43:00,
2013-03-26 18:48:00,60.6,3.7,28.67,SE,135,11.0,16.0,10,0.00,,,0.00,meteohub,2013-03-26 23:48:00,
2013-03-26 18:53:00,60.4,5.7,28.66,SE,135,6.0,16.0,11,0.00,,,0.00,meteohub,2013-03-26 23:53:00,
2013-03-26 18:58:00,60.3,5.5,28.66,SE,135,11.0,13.0,11,0.00,,,0.00,meteohub,2013-03-26 23:58:00,
2013-03-26 19:03:00,60.3,5.5,28.66,SE,135,11.0,13.0,11,0.00,,,0.00,meteohub,2013-03-27 00:03:00,
2013-03-26 19:08:00,59.7,7.0,28.66,SE,135,12.0,12.0,12,0.00,,,0.00,meteohub,2013-03-27 00:08:00,
2013-03-26 19:14:00,59.5,8.6,28.66,East,90,8.0,12.0,13,0.00,,,0.00,meteohub,2013-03-27 00:14:00,
2013-03-26 19:19:00,58.8,9.7,28.66,East,90,9.0,12.0,14,0.00,,,0.00,meteohub,2013-03-27 00:19:00,
2013-03-26 19:24:00,58.6,9.5,28.66,SE,135,11.0,14.0,14,0.00,,,0.00,meteohub,2013-03-27 00:24:00,
2013-03-26 19:29:00,58.5,9.5,28.66,SE,135,5.0,14.0,14,0.00,,,0.00,meteohub,2013-03-27 00:29:00,
2013-03-26 19:34:00,57.7,8.8,28.66,East,90,8.0,14.0,14,0.00,,,0.00,meteohub,2013-03-27 00:34:00,
2013-03-26 19:39:00,57.2,9.9,28.66,East,90,11.0,12.0,15,0.00,,,0.00,meteohub,2013-03-27 00:39:00,
2013-03-26 19:44:00,56.3,10.6,28.66,East,90,9.0,13.0,16,0.00,,,0.00,meteohub,2013-03-27 00:44:00,
2013-03-26 19:49:00,55.9,10.4,28.66,SE,135,11.0,13.0,16,0.00,,,0.00,meteohub,2013-03-27 00:49:00,
2013-03-26 19:54:00,55.8,11.7,28.66,East,90,11.0,13.0,17,0.00,,,0.00,meteohub,2013-03-27 00:54:00,
2013-03-26 19:59:00,55.4,12.6,28.65,SE,135,9.0,14.0,18,0.00,,,0.00,meteohub,2013-03-27 00:59:00,
2013-03-26 20:04:00,54.5,11.8,28.66,East,90,12.0,14.0,18,0.00,,,0.00,meteohub,2013-03-27 01:04:00,
2013-03-26 20:09:00,54.5,13.1,28.66,East,90,11.0,13.0,19,0.00,,,0.00,meteohub,2013-03-27 01:09:00,
2013-03-26 20:14:00,54.1,12.7,28.66,SE,135,9.0,13.0,19,0.00,,,0.00,meteohub,2013-03-27 01:14:00,
2013-03-26 20:19:00,53.8,13.6,28.66,East,90,9.0,14.0,20,0.00,,,0.00,meteohub,2013-03-27 01:19:00,
2013-03-26 20:24:00,53.4,13.3,28.66,SE,135,16.0,16.0,20,0.00,,,0.00,meteohub,2013-03-27 01:24:00,
2013-03-26 20:29:00,53.1,13.1,28.65,East,90,12.0,14.0,20,0.00,,,0.00,meteohub,2013-03-27 01:29:00,
2013-03-26 20:34:00,53.1,14.2,28.65,East,90,10.0,17.0,21,0.00,,,0.00,meteohub,2013-03-27 01:34:00,
2013-03-26 20:39:00,52.3,14.5,28.65,NE,45,12.0,17.0,22,0.00,,,0.00,meteohub,2013-03-27 01:39:00,
2013-03-26 20:44:00,52.0,14.4,28.65,SE,135,8.0,17.0,22,0.00,,,0.00,meteohub,2013-03-27 01:44:00,
2013-03-26 20:49:00,51.6,15.1,28.66,SE,135,9.0,15.0,23,0.00,,,0.00,meteohub,2013-03-27 01:49:00,
2013-03-26 20:54:00,51.3,15.6,28.66,East,90,11.0,15.0,24,0.00,,,0.00,meteohub,2013-03-27 01:54:00,
2013-03-26 20:59:00,50.9,15.4,28.66,East,90,8.0,15.0,24,0.00,,,0.00,meteohub,2013-03-27 01:59:00,
2013-03-26 21:04:00,50.5,16.0,28.67,East,90,8.0,15.0,25,0.00,,,0.00,meteohub,2013-03-27 02:04:00,
2013-03-26 21:09:00,50.2,16.5,28.66,SE,135,13.0,13.0,26,0.00,,,0.00,meteohub,2013-03-27 02:09:00,
2013-03-26 21:14:00,50.0,16.5,28.66,East,90,8.0,14.0,26,0.00,,,0.00,meteohub,2013-03-27 02:14:00,
2013-03-26 21:19:00,49.6,16.2,28.67,East,90,8.0,15.0,26,0.00,,,0.00,meteohub,2013-03-27 02:19:00,
2013-03-26 21:24:00,49.6,16.2,28.66,East,90,9.0,15.0,26,0.00,,,0.00,meteohub,2013-03-27 02:24:00,
2013-03-26 21:29:00,49.6,16.2,28.66,East,90,11.0,15.0,26,0.00,,,0.00,meteohub,2013-03-27 02:29:00,
2013-03-26 21:34:00,49.6,16.2,28.66,East,90,9.0,14.0,26,0.00,,,0.00,meteohub,2013-03-27 02:34:00,
2013-03-26 21:39:00,49.5,16.9,28.67,East,90,13.0,13.0,27,0.00,,,0.00,meteohub,2013-03-27 02:39:00,
2013-03-26 21:44:00,49.5,16.9,28.67,East,90,11.0,14.0,27,0.00,,,0.00,meteohub,2013-03-27 02:44:00,
2013-03-26 21:49:00,49.3,16.7,28.67,East,90,10.0,14.0,27,0.00,,,0.00,meteohub,2013-03-27 02:49:00,
2013-03-26 21:54:00,49.1,16.5,28.67,East,90,10.0,14.0,27,0.00,,,0.00,meteohub,2013-03-27 02:54:00,
2013-03-26 21:59:00,49.1,17.4,28.67,ESE,113,11.0,14.0,28,0.00,,,0.00,meteohub,2013-03-27 02:59:00,
2013-03-26 22:04:00,48.7,17.1,28.67,SE,135,9.0,15.0,28,0.00,,,0.00,meteohub,2013-03-27 03:04:00,
2013-03-26 22:09:00,48.4,17.6,28.67,SE,135,14.0,15.0,29,0.00,,,0.00,meteohub,2013-03-27 03:09:00,
2013-03-26 22:14:00,48.4,17.6,28.67,East,90,12.0,15.0,29,0.00,,,0.00,meteohub,2013-03-27 03:14:00,
2013-03-26 22:19:00,48.0,18.1,28.67,ESE,113,13.0,15.0,30,0.00,,,0.00,meteohub,2013-03-27 03:19:00,
2013-03-26 22:24:00,47.8,18.0,28.67,East,90,11.0,15.0,30,0.00,,,0.00,meteohub,2013-03-27 03:24:00,
2013-03-26 22:29:00,47.8,18.7,28.67,East,90,11.0,15.0,31,0.00,,,0.00,meteohub,2013-03-27 03:29:00,
2013-03-26 22:34:00,47.5,18.3,28.67,East,90,15.0,15.0,31,0.00,,,0.00,meteohub,2013-03-27 03:34:00,
2013-03-26 22:39:00,47.5,18.3,28.67,East,90,15.0,15.0,31,0.00,,,0.00,meteohub,2013-03-27 03:39:00,
2013-03-26 22:44:00,47.5,18.3,28.67,East,90,12.0,18.0,31,0.00,,,0.00,meteohub,2013-03-27 03:44:00,
2013-03-26 22:49:00,47.7,19.2,28.67,East,90,12.0,18.0,32,0.00,,,0.00,meteohub,2013-03-27 03:49:00,
2013-03-26 22:54:00,47.5,19.0,28.67,East,90,14.0,18.0,32,0.00,,,0.00,meteohub,2013-03-27 03:54:00,
2013-03-26 22:59:00,47.3,19.6,28.67,East,90,12.0,18.0,33,0.00,,,0.00,meteohub,2013-03-27 03:59:00,
2013-03-26 23:00:00,47.3,19.6,28.67,East,90,12.0,18.0,33,0.00,,,0.00,meteohub,2013-03-27 04:00:00,
2013-03-26 23:05:00,46.8,19.9,28.67,East,90,12.0,17.0,34,0.00,,,0.00,meteohub,2013-03-27 04:05:00,
2013-03-26 23:10:00,47.1,20.1,28.67,East,90,13.0,17.0,34,0.00,,,0.00,meteohub,2013-03-27 04:10:00,
2013-03-26 23:15:00,46.8,19.9,28.67,East,90,15.0,17.0,34,0.00,,,0.00,meteohub,2013-03-27 04:15:00,
2013-03-26 23:20:00,46.2,20.1,28.67,East,90,12.0,17.0,35,0.00,,,0.00,meteohub,2013-03-27 04:20:00,
2013-03-26 23:25:00,45.9,19.8,28.67,East,90,14.0,16.0,35,0.00,,,0.00,meteohub,2013-03-27 04:25:00,
2013-03-26 23:30:00,45.7,20.8,28.67,East,90,12.0,15.0,37,0.00,,,0.00,meteohub,2013-03-27 04:30:00,
2013-03-26 23:35:00,45.3,20.7,28.67,East,90,13.0,17.0,37,0.00,,,0.00,meteohub,2013-03-27 04:35:00,
2013-03-26 23:40:00,45.0,20.8,28.66,SE,135,13.0,17.0,38,0.00,,,0.00,meteohub,2013-03-27 04:40:00,
2013-03-26 23:45:00,45.0,20.8,28.66,East,90,15.0,17.0,38,0.00,,,0.00,meteohub,2013-03-27 04:45:00,
2013-03-26 23:50:00,44.8,21.4,28.66,East,90,9.0,17.0,39,0.00,,,0.00,meteohub,2013-03-27 04:50:00,
2013-03-26 23:55:00,44.4,21.0,28.66,East,90,11.0,17.0,39,0.00,,,0.00,meteohub,2013-03-27 04:55:00,